COSMOS 1579 FUEL CORE, 15330

Orbit data source: Space-Track

COSMOS 1579 FUEL CORE, 15330 is space debris in LEO originally from a launch on Fri, 29 Jun 1984 UTC launched from the Tyuratam Missile And Space Complex (TTMTR). Debris objects in space refer to the collection of defunct objects orbiting the Earth. Examples of debris include non-operational satellites, rocket bodies, and fragments generated from explosions, collisions, or faulty payload assembly.

Loading next visibility...
Identifier
15330, 1984-069D
Orbit
LEO
Country
Flag of CISCIS
Related business
Manufacturer
Kometa
Mission
Spacecraft
Bus & Motor
US-A REACTOR CORE, Unknown motor
Mass
Wet unknown, 53 kg dry
Launch date (UTC)
1984-06-29 (41 years ago)
Launch vehicle
Unknown
Launch site
Tyuratam Missile And Space Complex (TTMTR)
Object type
Payload
Rocket body
Debris
Shape & HBR
Unknown
Radar Cross Section
Medium (>0.1 m² and <1 m²)

Expand to show TLE details & history
Last TLE update: 12 hours ago

TLE from 12 hours ago
0 COSMOS 1579 FUEL CORE
1 15330U 84069D   25292.24500672 -.00000076  00000-0  10773-4 0  9991
2 15330  65.0532  96.6387 0026155  20.2243  36.3232 13.89913053 98497
Epoch: 2025-10-19T05:52Z
TLE epoch observation values (Epoch: 2025-10-19T05:52:48.580Z)
Latitude
49.41009°
Longitude
13.16111°
Altitude
920.392 km
Speed
7.405 km/s
True Right ascension
08h 37m 18s
True Declination
49° 14' 38"
Sunlit
Object was in daylight at epoch
Visualization orbit readout
Latitude
Unknown
Longitude
Unknown
Altitude
Unknown
Speed
Unknown
Apparent Right ascension
Unknown
Apparent Declination
Unknown
Sunlit
N/A
Visualization observer readout
Local Sidereal Time
12:30:32
Azimuth
Unknown
Elevation
Unknown
Doppler factor
Unknown
Orbital elements
Apogee altitude
946.643 km
Perigee altitude
908.427 km
Semi-major axis
7,305.672 km
Eccentricity
0.00262
Inclination
65.0532°
RAAN
96.6387°
Arg. of periapsis
20.2243°
True anomaly
36.5012°
Mean anomaly
36.3232°
Eccentric anomaly
36.41215°
Mean motion
3.47579 °/min
Orbital period
103.57 mins
BSTAR
0.000010773
Loading maneuver chart data...
Computing Atmospheric mass density...
Loading historical data...
Loading historical data...
Loading historical data...
Loading historical data...
Loading historical data...
Loading historical data...
Loading historical data...

Documentation

Showing up to 5 results
|